Dallas/Ft Worth, TX

11:28 PM CST on January 20, 2018 (GMT -0600)
Dallas-Fort Worth International

Weather History for KDFW - January, 2014

Change the Weather History Date:

Thursday, January 23, 2014

  Actual Average Record
Temperature  
Mean Temperature 35 °F 46 °F  
Max Temperature 45 °F 57 °F 88 °F (1943)
Min Temperature 24 °F 36 °F 9 °F (1966)
Degree Days  
Heating Degree Days 30 19  
Month to date heating degree days 431 448  
Since 1 July heating degree days 1503 1360  
Cooling Degree Days 0 0  
Month to date cooling degree days 0 0  
Year to date cooling degree days 0 0  
Moisture  
Dew Point 8 °F    
Average Humidity 39    
Maximum Humidity 51    
Minimum Humidity 27    
Precipitation  
Precipitation T in 0.08 in 1.47 in (1938)
Month to date precipitation 0.33 1.51  
Year to date precipitation 0.33 1.51  
Snow  
Snow T in 0.00 in 1.00 in (1926)
Month to date snowfall T 0.1  
Since 1 July snowfall 2.1 0.4  
Snow Depth 0.00 in    
Sea Level Pressure  
Sea Level Pressure 30.54 in    
Wind  
Wind Speed 20 mph (NNE)    
Max Wind Speed 30 mph    
Max Gust Speed 35 mph    
Visibility 10 miles    
Events      
T = Trace of Precipitation, MM = Missing Value Source: NWS Daily Summary

Daily Weather History Graph

Daily Weather History Graph

Search for Another Location

Airport or City:

Trip Planner

Search our weather history database for the weather conditions in past years. The results will help you decide how hot, cold, wet, or windy it might be!

Date:

Astronomy

Jan. 23, 2014 Rise Set
Actual Time 7:28 AM CST 5:52 PM CST
Civil Twilight 7:01 AM CST 6:18 PM CST
Nautical Twilight 6:32 AM CST 6:48 PM CST
Astronomical Twilight 6:02 AM CST 7:17 PM CST
Moon 12:01 AM CST (1/23) 11:28 AM CST (1/23)
Length of Visible Light 11h 16m
Length of Day
10h 23m
Waning Gibbous, 55% of the Moon is Illuminated
Jan 23
Waning Gibbous
Jan 23
Last Quarter
Jan 30
New
Feb 6
First Quarter
Feb 14
Full

Hourly Weather History & Observations

Time (CST) Temp. Windchill Dew Point Humidity Pressure Visibility Wind Dir Wind Speed Gust Speed Precip Events Conditions
12:53 AM 44.1 °F 36.8 °F 21.0 °F 40% 30.19 in 10.0 mi NE 16.1 mph - N/A   Mostly Cloudy
1:53 AM 43.0 °F 35.7 °F 21.0 °F 42% 30.21 in 10.0 mi NE 15.0 mph 25.3 mph N/A   Overcast
2:53 AM 42.1 °F 34.5 °F 21.0 °F 43% 30.24 in 10.0 mi NE 15.0 mph - N/A   Mostly Cloudy
3:53 AM 41.0 °F 32.8 °F 17.1 °F 38% 30.25 in 10.0 mi NE 16.1 mph 26.5 mph N/A   Overcast
4:53 AM 41.0 °F 31.6 °F 17.1 °F 38% 30.28 in 10.0 mi NE 20.7 mph 27.6 mph N/A   Mostly Cloudy
5:53 AM 41.0 °F 31.6 °F 16.0 °F 36% 30.32 in 10.0 mi NE 20.7 mph 28.8 mph N/A   Overcast
6:53 AM 39.9 °F 30.2 °F 14.0 °F 35% 30.38 in 10.0 mi NNE 20.7 mph 29.9 mph N/A   Overcast
7:53 AM 37.9 °F 27.3 °F 14.0 °F 38% 30.41 in 10.0 mi NNE 21.9 mph 28.8 mph N/A   Mostly Cloudy
8:53 AM 36.0 °F 25.0 °F 18.0 °F 48% 30.46 in 10.0 mi North 20.7 mph 26.5 mph N/A   Overcast
9:53 AM 34.0 °F 21.5 °F 17.1 °F 50% 30.51 in 10.0 mi NNE 24.2 mph 29.9 mph N/A   Overcast
10:53 AM 35.1 °F 23.8 °F 17.1 °F 48% 30.55 in 10.0 mi NNE 20.7 mph 34.5 mph N/A   Overcast
11:53 AM 30.9 °F 17.8 °F 12.9 °F 47% 30.58 in 10.0 mi NNE 23.0 mph 33.4 mph N/A   Overcast
12:53 PM 30.0 °F 15.4 °F 7.0 °F 38% 30.57 in 10.0 mi North 27.6 mph 34.5 mph N/A   Overcast
1:53 PM 28.9 °F 14.3 °F 3.0 °F 33% 30.58 in 10.0 mi North 26.5 mph 34.5 mph N/A   Overcast
2:53 PM 28.9 °F 14.5 °F 1.0 °F 30% 30.61 in 10.0 mi NNE 25.3 mph 32.2 mph N/A   Overcast
3:53 PM 28.9 °F 16.1 °F -0.0 °F 29% 30.63 in 10.0 mi North 19.6 mph 32.2 mph N/A   Overcast
4:53 PM 28.0 °F 15.3 °F 1.0 °F 31% 30.66 in 10.0 mi North 18.4 mph 28.8 mph N/A   Mostly Cloudy
5:53 PM 28.0 °F 14.6 °F -0.0 °F 30% 30.68 in 10.0 mi NNE 20.7 mph 27.6 mph N/A   Overcast
6:53 PM 28.0 °F 14.3 °F -0.9 °F 29% 30.71 in 10.0 mi North 21.9 mph 27.6 mph N/A   Overcast
7:53 PM 28.0 °F 13.9 °F -2.0 °F 27% 30.72 in 10.0 mi NNE 23.0 mph - N/A   Overcast
8:53 PM 28.0 °F 14.9 °F -0.9 °F 29% 30.74 in 10.0 mi NNE 19.6 mph - N/A   Overcast
9:53 PM 27.0 °F 13.9 °F -0.0 °F 31% 30.76 in 10.0 mi North 18.4 mph - N/A   Overcast
10:53 PM 26.1 °F 14.5 °F -0.0 °F 32% 30.78 in 10.0 mi North 13.8 mph 24.2 mph N/A   Overcast
11:09 PM 25.0 °F 10.9 °F -0.0 °F 34% 30.76 in 9.0 mi North 19.6 mph 25.3 mph 0.00 in   Light Ice Pellets
11:36 PM 25.0 °F 13.6 °F -0.0 °F 34% 30.76 in 10.0 mi NNE 12.7 mph - 0.00 in   Overcast
11:53 PM 24.1 °F 11.5 °F -0.0 °F 35% 30.77 in 10.0 mi North 15.0 mph - 0.00 in   Overcast